Location: Zwardon
(49.5170°N, 18.9830°E)
Time: 14:26:55
(UTC+01:00)

N. Korean satellite - Visible Passes

Search period start: 08 December 2022 00:00
Search period end: 18 December 2022 00:00
Orbit: 420 x 452 km, 97.3° (Epoch: 08 December)

Date Brightness Start Highest point End Pass type
(mag) Time Alt. Az. Time Alt. Az. Time Alt. Az.
08 Dec 7.1 04:57:41 10° NNE 05:01:01 55° E 05:04:19 10° S visible
08 Dec 8.2 06:31:30 10° NNW 06:33:06 13° WNW 06:34:41 10° W visible
08 Dec 9.5 17:04:12 10° SW 17:06:39 18° W 17:09:08 10° NW visible
09 Dec 9.2 04:19:16 10° NE 04:21:45 19° E 04:24:13 10° SE visible
09 Dec 7.1 05:51:18 10° N 05:54:20 31° WNW 05:57:21 10° SW visible
09 Dec 7.4 16:24:03 10° S 16:27:22 52° W 16:30:44 10° NNW visible
10 Dec 6.3 05:11:55 10° NNE 05:15:19 84° ESE 05:18:39 10° SSW visible
10 Dec 9.8 17:19:22 10° WSW 17:21:01 13° W 17:22:42 10° WNW visible
11 Dec 8.5 04:33:07 10° NE 04:36:02 27° E 04:38:55 10° SSE visible
11 Dec 7.5 06:05:44 10° NNW 06:08:25 22° WNW 06:11:05 10° WSW visible
11 Dec 8.3 16:38:24 10° SSW 16:41:33 35° W 16:44:44 10° NNW visible
12 Dec 6.2 05:26:02 10° N 05:29:24 64° WNW 05:32:41 10° SSW visible
13 Dec 7.7 04:46:54 10° NNE 04:50:05 39° E 04:53:13 10° S visible
13 Dec 7.9 06:20:07 10° NNW 06:22:17 16° WNW 06:24:26 10° WSW visible
13 Dec 9.0 16:52:43 10° SSW 16:55:34 24° W 16:58:25 10° NW visible
14 Dec 9.6 04:11:15 13° ESE 04:11:15 13° ESE 04:12:21 10° SE visible
14 Dec 7.6 05:40:01 10° N 05:44:39 26° SW 05:46:22 10° SW visible
15 Dec 8.1 05:00:34 10° NNE 05:05:37 25° S 05:07:09 10° S visible
15 Dec 8.6 06:39:00 - WSW 06:39:00 - WSW 06:34:29 10° NW visible
15 Dec 9.5 17:07:03 10° SW 17:09:23 17° W 17:11:45 10° NW visible
16 Dec 9.4 04:26:20 12° SE 04:26:20 12° SE 04:26:46 10° SE visible
16 Dec 8.7 05:53:52 10° N 05:59:42 10° SW 05:59:44 10° SW visible
16 Dec 7.5 16:26:26 10° S 16:29:44 49° W 16:33:04 10° NNW visible
17 Dec 8.7 05:20:17 14° SSW 05:20:17 14° SSW 05:20:46 10° SSW visible
17 Dec 9.8 17:21:31 10° WSW 17:23:02 12° W 17:24:33 10° WNW visible
